Meath Environmental Platform

Observations for Trim Market St

Time AQI Temp °C Hum % Pres Pa CO μg/m³ H₂S μg/m³ NO μg/m³ NO₂ μg/m³ O₃ μg/m³ SO₂ μg/m³ PM1 μg/m³ PM2.5 μg/m³ PM10 μg/m³
Wednesday 26 August 2026
11:16 2 18.6 82 2,147,483,647 0.23 0 3.46 21.88 34.31 0 9.26 10.48 15.33
11:15 2 18.6 82 2,147,483,647 0.28 0 2.72 34.09 27.86 0 9.26 10.48 15.89
11:14 2 18.5 82 2,147,483,647 0.2 0 2.49 16.27 48.57 0 10.69 14.25 19.81
11:12 2 18.5 82 2,147,483,647 0.2 0 1.46 14.06 36.63 0 9.26 12.84 18.69
11:11 2 18.5 82 2,147,483,647 0.25 0 1.46 15.96 36.76 0 8.55 9.55 15.34
11:10 2 18.5 82 2,147,483,647 0.19 0 1.43 14.67 36.02 0 8.55 9.41 13.11
11:08 2 18.5 82 2,147,483,647 0.2 0 1.13 13.8 37.66 0 7.84 9.08 14.23
11:07 2 18.5 82 2,147,483,647 0.19 0 1.09 14.68 37.56 0 9.98 10.96 16.46
11:06 2 18.5 82 2,147,483,647 0.21 0 1.1 16.58 36.23 0 9.26 9.55 13.67
11:05 2 18.5 82 2,147,483,647 0.23 0 1.09 13.35 36.95 0 7.84 9.08 14.23
11:04 2 18.5 82 2,147,483,647 0.19 0 1.04 12.48 41.37 0 9.98 10.97 13.67
11:03 2 18.5 82 2,147,483,647 0.21 0 0.98 12.7 36.55 0 7.84 10.02 14.78
11:01 2 18.5 82 2,147,483,647 0.24 0 0.97 12.84 39.12 0 9.98 12.37 17.57
10:52 2 18.5 82 2,147,483,647 0.24 0 1.28 13.57 27.49 0 6.41 8.14 11.99
10:50 2 18.6 82 2,147,483,647 0.25 0 0.99 13.09 33.16 0 7.13 10.02 15.9
10:49 2 18.6 82 2,147,483,647 0.26 0 0.94 12.62 36.17 0 6.41 7.67 13.67
10:47 2 18.6 82 2,147,483,647 0.24 0 1.04 12.93 31.99 0 6.41 7.67 11.43
10:42 2 18.7 82 2,147,483,647 0.38 0 1.23 13.08 32.14 0 7.13 7.18 11.42
10:41 2 18.7 82 2,147,483,647 0.27 0 1.12 12.08 35.15 0 6.41 7.05 12.53
10:40 2 18.7 82 2,147,483,647 0.27 0 1.22 12.5 37.34 0 8.55 8.59 12.53